Madison, SD

8:44 AM CDT on March 24, 2017 (GMT -0500)
Madison Municipal

Weather History for KMDS - January, 2012

Change the Weather History Date:

Saturday, January 21, 2012

  Actual Average Record
Temperature  
Mean Temperature 6 °F -  
Max Temperature 17 °F 23 °F 33 °F (2017)
Min Temperature -5 °F 7 °F -11 °F (2014)
Degree Days  
Heating Degree Days 59    
Moisture  
Dew Point 5 °F    
Average Humidity 100    
Maximum Humidity 100    
Minimum Humidity 100    
Precipitation  
Precipitation 0.04 in - - ()
Sea Level Pressure  
Sea Level Pressure 29.89 in    
Wind  
Wind Speed 13 mph (SSE)    
Max Wind Speed 31 mph    
Max Gust Speed 45 mph    
Visibility 6 miles    
Events Rain , Snow    
Averages and records for this station are not official NWS values.
T = Trace of Precipitation, MM = Missing Value Source: NWS Daily Summary

Daily Weather History Graph

Daily Weather History Graph

Search for Another Location

Airport or City:

Trip Planner

Search our weather history database for the weather conditions in past years. The results will help you decide how hot, cold, wet, or windy it might be!

Date:

Astronomy

Jan. 21, 2012 Rise Set
Actual Time 7:56 AM CST 5:23 PM CST
Civil Twilight 7:24 AM CST 5:54 PM CST
Nautical Twilight 6:49 AM CST 6:30 PM CST
Astronomical Twilight 6:15 AM CST 7:04 PM CST
Moon 6:29 AM CST (1/21) 3:59 PM CST (1/21)
Length of Visible Light 10h 30m
Length of Day
9h 26m
Waning Crescent, 3% of the Moon is Illuminated
Jan 21
Waning Crescent
Jan 23
New
Jan 30
First Quarter
Feb 7
Full
Feb 14
Last Quarter

Hourly Weather History & Observations

Time (CST) Temp. Windchill Dew Point Humidity Pressure Visibility Wind Dir Wind Speed Gust Speed Precip Events Conditions
12:05 AM -4.0 °F -12.4 °F -4.0 °F 100% 30.15 in 10.0 mi SSE 3.5 mph - N/A   Clear
12:30 AM -4.0 °F -14.6 °F -4.0 °F 100% 30.14 in 10.0 mi SSE 4.6 mph - N/A   Clear
12:50 AM -0.4 °F -13.4 °F -0.4 °F 100% 30.14 in 10.0 mi South 6.9 mph - N/A   Clear
1:05 AM -4.0 °F -17.8 °F -4.0 °F 100% 30.14 in 10.0 mi South 6.9 mph - N/A   Clear
1:30 AM -4.0 °F -16.3 °F -4.0 °F 100% 30.13 in 10.0 mi South 5.8 mph - N/A   Clear
2:10 AM -4.0 °F -17.8 °F -4.0 °F 100% 30.11 in 10.0 mi South 6.9 mph - N/A   Clear
2:30 AM -5.8 °F -19.9 °F -5.8 °F 100% 30.10 in 10.0 mi South 6.9 mph - N/A   Clear
2:50 AM -2.2 °F -18.0 °F -2.2 °F 100% 30.09 in 10.0 mi South 9.2 mph - N/A   Clear
3:10 AM -4.0 °F -17.8 °F -4.0 °F 100% 30.09 in 10.0 mi South 6.9 mph - N/A   Partly Cloudy
3:30 AM -5.8 °F -19.9 °F -5.8 °F 100% 30.08 in 10.0 mi South 6.9 mph - N/A   Scattered Clouds
3:50 AM -4.0 °F -16.3 °F -4.0 °F 100% 30.08 in 10.0 mi South 5.8 mph - N/A   Mostly Cloudy
4:05 AM -4.0 °F -16.3 °F -4.0 °F 100% 30.09 in 10.0 mi SSW 5.8 mph - N/A   Overcast
4:30 AM -4.0 °F -17.8 °F -4.0 °F 100% 30.08 in 10.0 mi South 6.9 mph - N/A   Overcast
4:50 AM -2.2 °F -15.6 °F -2.2 °F 100% 30.06 in 10.0 mi SSE 6.9 mph - N/A   Overcast
5:10 AM -0.4 °F -15.7 °F -0.4 °F 100% 30.04 in 10.0 mi SSE 9.2 mph - N/A   Overcast
5:30 AM -0.4 °F -14.7 °F -0.4 °F 100% 30.03 in 10.0 mi SSE 8.1 mph - N/A   Overcast
5:50 AM -0.4 °F -14.7 °F -0.4 °F 100% 30.02 in 10.0 mi SSE 8.1 mph - N/A   Overcast
6:05 AM 1.4 °F -13.5 °F 1.4 °F 100% 30.01 in 10.0 mi SSE 9.2 mph - N/A   Overcast
6:30 AM 1.4 °F -15.3 °F 1.4 °F 100% 30.01 in 10.0 mi South 11.5 mph - N/A   Overcast
6:50 AM 1.4 °F -16.1 °F 1.4 °F 100% 30.00 in 10.0 mi South 12.7 mph - N/A   Overcast
7:10 AM 1.4 °F -16.1 °F 1.4 °F 100% 29.99 in 10.0 mi SSE 12.7 mph 17.3 mph N/A   Overcast
7:30 AM 3.2 °F -15.3 °F 3.2 °F 100% 29.98 in 10.0 mi South 15.0 mph - N/A   Overcast
7:50 AM 3.2 °F -15.3 °F 3.2 °F 100% 29.97 in 10.0 mi South 15.0 mph - N/A   Overcast
8:05 AM 3.2 °F -15.3 °F 3.2 °F 100% 29.97 in 10.0 mi South 15.0 mph - N/A   Overcast
8:30 AM 3.2 °F -15.3 °F 3.2 °F 100% 29.98 in 10.0 mi South 15.0 mph - N/A   Overcast
8:50 AM 3.2 °F -16.5 °F 3.2 °F 100% 29.97 in 10.0 mi South 17.3 mph 24.2 mph N/A Snow Light Snow
9:10 AM 3.2 °F -16.5 °F 3.2 °F 100% 29.96 in 10.0 mi SSE 17.3 mph - N/A   Mostly Cloudy
9:30 AM 3.2 °F -16.5 °F 3.2 °F 100% 29.95 in 10.0 mi South 17.3 mph - N/A   Overcast
9:50 AM 5.0 °F -14.2 °F 5.0 °F 100% 29.93 in 10.0 mi SSE 17.3 mph 24.2 mph N/A   Overcast
10:05 AM 5.0 °F -15.7 °F 5.0 °F 100% 29.92 in 10.0 mi SSE 20.7 mph 25.3 mph N/A   Overcast
10:30 AM 5.0 °F -15.2 °F 5.0 °F 100% 29.91 in 9.0 mi SSE 19.6 mph 28.8 mph N/A   Overcast
10:50 AM 5.0 °F -17.1 °F 5.0 °F 100% 29.90 in 6.0 mi South 24.2 mph 31.1 mph N/A   Overcast
11:10 AM 5.0 °F -16.7 °F 5.0 °F 100% 29.88 in 2.5 mi South 23.0 mph 33.4 mph N/A Rain Light Freezing Rain
11:30 AM 6.8 °F -13.4 °F 6.8 °F 100% 29.87 in 5.0 mi South 20.7 mph 32.2 mph N/A   Overcast
11:50 AM 8.6 °F -12.7 °F 8.6 °F 100% 29.83 in 3.0 mi South 25.3 mph 31.1 mph N/A Snow Light Snow
12:10 PM 8.6 °F -13.4 °F 8.6 °F 100% 29.80 in 1.0 mi South 27.6 mph 39.1 mph N/A Rain Light Freezing Rain
12:30 PM 8.6 °F -13.4 °F 8.6 °F 100% 29.78 in 1.0 mi South 27.6 mph 36.8 mph N/A Snow Light Snow
12:50 PM 10.4 °F -10.7 °F 10.4 °F 100% 29.76 in 0.8 mi South 26.5 mph 39.1 mph N/A Snow Light Snow
1:00 PM 10.4 °F -11.0 °F 10.4 °F 100% 29.75 in 0.8 mi South 27.6 mph 42.6 mph 0.01 in Snow Light Snow
1:10 PM 10.4 °F -11.7 °F 10.4 °F 100% 29.74 in 0.8 mi South 29.9 mph 38.0 mph N/A Snow Light Snow
1:30 PM 12.2 °F -9.3 °F 12.2 °F 100% 29.73 in 0.8 mi South 29.9 mph 44.9 mph 0.01 in Snow Light Snow
1:50 PM 12.2 °F -8.9 °F 12.2 °F 100% 29.71 in 0.8 mi South 28.8 mph 40.3 mph 0.01 in Snow Light Snow
2:00 PM 12.2 °F -9.3 °F 12.2 °F 100% 29.71 in 0.8 mi South 29.9 mph 41.4 mph 0.02 in Snow Light Snow
2:30 PM 12.2 °F -7.9 °F 12.2 °F 100% 29.70 in 1.0 mi South 25.3 mph 38.0 mph N/A Snow Light Snow
2:50 PM 12.2 °F -8.2 °F 12.2 °F 100% 29.68 in 1.5 mi SSE 26.5 mph 38.0 mph N/A Rain Light Freezing Rain
3:00 PM 14.0 °F -5.5 °F 14.0 °F 100% 29.68 in 1.5 mi SSE 25.3 mph 38.0 mph 0.01 in Rain Light Freezing Rain
3:10 PM 14.0 °F -4.3 °F 14.0 °F 100% 29.68 in 1.5 mi SSE 21.9 mph 32.2 mph N/A Rain Light Freezing Rain
3:30 PM 14.0 °F -4.7 °F 14.0 °F 100% 29.65 in 1.8 mi SSE 23.0 mph 33.4 mph N/A Rain Light Freezing Rain
3:50 PM 14.0 °F -6.2 °F 14.0 °F 100% 29.64 in 1.5 mi SSE 27.6 mph 38.0 mph N/A   Mostly Cloudy
4:10 PM 15.8 °F -3.1 °F 15.8 °F 100% 29.62 in 1.8 mi SSE 25.3 mph 36.8 mph N/A Rain Light Freezing Rain
4:30 PM 15.8 °F -3.4 °F 15.8 °F 100% 29.61 in 2.0 mi SSE 26.5 mph 36.8 mph N/A   Mostly Cloudy
4:50 PM 15.8 °F -3.1 °F 15.8 °F 100% 29.60 in 3.0 mi SSE 25.3 mph 42.6 mph N/A   Scattered Clouds
5:10 PM 17.6 °F -1.0 °F 17.6 °F 100% 29.59 in 4.0 mi South 26.5 mph 34.5 mph N/A   Partly Cloudy
5:30 PM 17.6 °F -0.6 °F 17.6 °F 100% 29.59 in 4.0 mi SSE 25.3 mph 38.0 mph N/A   Scattered Clouds
5:50 PM 17.6 °F -1.6 °F 17.6 °F 100% 29.58 in 3.0 mi SSE 28.8 mph 39.1 mph N/A   Mostly Cloudy
6:05 PM 17.6 °F -2.2 °F 17.6 °F 100% 29.57 in 3.0 mi South 31.1 mph 35.7 mph N/A   Overcast
6:30 PM 17.6 °F -1.3 °F 17.6 °F 100% 29.57 in 5.0 mi South 27.6 mph 36.8 mph N/A   Overcast
6:50 PM 17.6 °F 0.1 °F 17.6 °F 100% 29.57 in 5.0 mi SSE 23.0 mph 32.2 mph N/A   Overcast
7:30 PM 17.6 °F -0.6 °F 17.6 °F 100% 29.57 in 4.0 mi South 25.3 mph 35.7 mph N/A   Overcast
7:50 PM 17.6 °F -0.3 °F 17.6 °F 100% 29.57 in 4.0 mi South 24.2 mph 33.4 mph N/A   Overcast
8:10 PM 19.4 °F 0.8 °F 19.4 °F 100% 29.56 in 3.0 mi South 28.8 mph 35.7 mph N/A   Overcast
8:30 PM 17.6 °F -1.6 °F 17.6 °F 100% 29.57 in 3.0 mi South 28.8 mph 38.0 mph N/A   Overcast
8:50 PM 17.6 °F -1.6 °F 17.6 °F 100% 29.56 in 5.0 mi South 28.8 mph 36.8 mph N/A   Overcast
9:10 PM 17.6 °F 0.1 °F 17.6 °F 100% 29.57 in 7.0 mi South 23.0 mph 34.5 mph N/A   Overcast
9:25 PM 17.6 °F 0.1 °F 17.6 °F 100% 29.56 in 8.0 mi South 23.0 mph 31.1 mph N/A   Overcast
9:45 PM 17.6 °F -1.9 °F 17.6 °F 100% 29.55 in 5.0 mi South 29.9 mph 36.8 mph N/A   Overcast
10:10 PM 19.4 °F 2.8 °F 19.4 °F 100% 29.55 in 10.0 mi South 21.9 mph 34.5 mph N/A   Mostly Cloudy
10:30 PM 17.6 °F -0.3 °F 17.6 °F 100% 29.54 in 10.0 mi South 24.2 mph 31.1 mph N/A   Mostly Cloudy
10:50 PM 17.6 °F 1.3 °F 17.6 °F 100% 29.52 in 10.0 mi South 19.6 mph 27.6 mph N/A   Mostly Cloudy
11:10 PM 17.6 °F 0.9 °F 17.6 °F 100% 29.52 in 10.0 mi South 20.7 mph 28.8 mph N/A   Mostly Cloudy
11:30 PM 19.4 °F 5.0 °F 19.4 °F 100% 29.52 in 10.0 mi South 16.1 mph 25.3 mph N/A   Overcast
11:50 PM 19.4 °F 4.5 °F 19.4 °F 100% 29.52 in 9.0 mi South 17.3 mph 26.5 mph N/A   Overcast